When you browse on this site, cookies collect data to enhance your experience and personalize the content and advertising you see.
Visit our Privacy Policy to learn more. By continuing to use the site, you agree to this use of cookies and data.
  • In Österreich
  • Länderverzeichnis
  • Für 7 Tage
  • Wassertemperatur
  • Satellitenkarten
  • Wetterkarte
  • News
  • Widgets
  • user-avatar
    Anmelden

    Stündliche Wetter Masari Sharif

    Heute, 20 April, Samstag

    Zeit Temperatur Niederschläge Wind Luftdruck Luftfeuchtigkeit
    00:00 +18°C° 0.4 mm 1 m/S 654 mmHg 58%
    01:00 +18°C° 0.4 mm 1 m/S 654 mmHg 60%
    02:00 +16°C° 0.3 mm 1 m/S 653 mmHg 62%
    03:00 +16°C° 0.3 mm 1 m/S 653 mmHg 63%
    04:00 +15°C° 0 mm 1 m/S 653 mmHg 63%
    05:00 +18°C° 0.2 mm 1 m/S 654 mmHg 57%
    06:00 +19°C° 0.2 mm 1 m/S 654 mmHg 52%
    07:00 +20°C° 0.2 mm 2 m/S 654 mmHg 46%
    08:00 +21°C° 0.2 mm 2 m/S 655 mmHg 43%
    09:00 +23°C° 0.2 mm 2 m/S 655 mmHg 39%
    10:00 +24°C° 0.2 mm 2 m/S 655 mmHg 36%
    11:00 +24°C° 0 mm 3 m/S 654 mmHg 36%
    12:00 +25°C° 0 mm 3 m/S 654 mmHg 36%
    13:00 +25°C° 0 mm 4 m/S 654 mmHg 36%
    14:00 +24°C° 0.3 mm 3 m/S 653 mmHg 38%
    15:00 +24°C° 0.3 mm 2 m/S 653 mmHg 40%
    16:00 +23°C° 0.3 mm 1 m/S 652 mmHg 42%
    17:00 +23°C° 0 mm 2 m/S 652 mmHg 44%
    18:00 +21°C° 0 mm 2 m/S 652 mmHg 45%
    19:00 +20°C° 0 mm 3 m/S 652 mmHg 47%
    20:00 +20°C° 0 mm 3 m/S 652 mmHg 47%
    21:00 +20°C° 0 mm 2 m/S 652 mmHg 47%
    22:00 +20°C° 0 mm 2 m/S 652 mmHg 47%
    23:00 +20°C° 0 mm 2 m/S 652 mmHg 46%

    Morgen, 21 April, Sonntag

    Zeit Temperatur Niederschläge Wind Luftdruck Luftfeuchtigkeit
    00:00 +19°C° 0 mm 2 m/S 651 mmHg 46%
    01:00 +20°C° 0 mm 1 m/S 651 mmHg 45%
    02:00 +19°C° 0.2 mm 2 m/S 651 mmHg 44%
    03:00 +18°C° 0.2 mm 2 m/S 651 mmHg 42%
    04:00 +18°C° 0.2 mm 3 m/S 651 mmHg 41%
    05:00 +19°C° 0.3 mm 4 m/S 651 mmHg 43%
    06:00 +19°C° 0.3 mm 5 m/S 652 mmHg 44%
    07:00 +19°C° 0.3 mm 6 m/S 653 mmHg 46%
    08:00 +17°C° 0.2 mm 5 m/S 653 mmHg 54%
    09:00 +16°C° 0.2 mm 5 m/S 653 mmHg 63%
    10:00 +15°C° 0.2 mm 5 m/S 653 mmHg 72%
    11:00 +15°C° 0 mm 5 m/S 653 mmHg 71%
    12:00 +15°C° 0 mm 5 m/S 653 mmHg 70%
    13:00 +15°C° 0 mm 5 m/S 653 mmHg 68%
    14:00 +15°C° 0.3 mm 5 m/S 653 mmHg 69%
    15:00 +14°C° 0.3 mm 5 m/S 653 mmHg 70%
    16:00 +13°C° 0.3 mm 5 m/S 653 mmHg 70%
    17:00 +13°C° 0.6 mm 4 m/S 653 mmHg 72%
    18:00 +12°C° 0.6 mm 4 m/S 654 mmHg 74%
    19:00 +12°C° 0.6 mm 3 m/S 654 mmHg 77%
    20:00 +12°C° 0.3 mm 3 m/S 655 mmHg 78%
    21:00 +12°C° 0.3 mm 3 m/S 655 mmHg 79%
    22:00 +12°C° 0.3 mm 2 m/S 656 mmHg 80%
    23:00 +12°C° 0.1 mm 2 m/S 655 mmHg 81%

    übermorgen, 22 April, Montag

    Zeit Temperatur Niederschläge Wind Luftdruck Luftfeuchtigkeit
    00:00 +12°C° 0.1 mm 2 m/S 655 mmHg 82%
    01:00 +12°C° 0.1 mm 1 m/S 655 mmHg 84%
    02:00 +12°C° 0 mm 1 m/S 655 mmHg 85%
    03:00 +11°C° 0 mm 1 m/S 655 mmHg 86%
    04:00 +10°C° 0 mm 0 m/S 655 mmHg 86%
    05:00 +12°C° 0 mm 1 m/S 656 mmHg 82%
    06:00 +13°C° 0 mm 1 m/S 656 mmHg 78%
    07:00 +14°C° 0 mm 2 m/S 656 mmHg 73%
    08:00 +15°C° 0 mm 2 m/S 657 mmHg 67%
    09:00 +17°C° 0 mm 2 m/S 657 mmHg 61%
    10:00 +18°C° 0 mm 3 m/S 657 mmHg 54%
    11:00 +20°C° 0 mm 3 m/S 657 mmHg 50%
    12:00 +21°C° 0 mm 3 m/S 656 mmHg 46%
    13:00 +22°C° 0 mm 3 m/S 656 mmHg 42%
    14:00 +22°C° 0 mm 3 m/S 656 mmHg 42%
    15:00 +24°C° 0 mm 3 m/S 655 mmHg 42%
    16:00 +24°C° 0 mm 3 m/S 655 mmHg 42%
    17:00 +21°C° 0 mm 2 m/S 655 mmHg 47%
    18:00 +20°C° 0 mm 2 m/S 655 mmHg 52%
    19:00 +20°C° 0 mm 1 m/S 654 mmHg 57%
    20:00 +19°C° 0 mm 1 m/S 654 mmHg 59%
    21:00 +19°C° 0 mm 1 m/S 654 mmHg 61%
    22:00 +19°C° 0 mm 1 m/S 654 mmHg 63%
    23:00 +19°C° 0 mm 1 m/S 654 mmHg 63%

    23 April, Dienstag

    Zeit Temperatur Niederschläge Wind Luftdruck Luftfeuchtigkeit
    00:00 +19°C° 0 mm 1 m/S 653 mmHg 63%
    01:00 +19°C° 0 mm 1 m/S 653 mmHg 63%
    02:00 +19°C° 0 mm 1 m/S 653 mmHg 62%
    03:00 +18°C° 0 mm 1 m/S 653 mmHg 62%
    04:00 +18°C° 0 mm 1 m/S 653 mmHg 62%
    05:00 +18°C° 0.3 mm 2 m/S 653 mmHg 61%
    06:00 +18°C° 0.3 mm 3 m/S 653 mmHg 60%
    07:00 +18°C° 0.3 mm 4 m/S 653 mmHg 59%
    08:00 +21°C° 0.3 mm 4 m/S 654 mmHg 48%
    09:00 +24°C° 0.3 mm 3 m/S 654 mmHg 38%
    10:00 +27°C° 0.3 mm 3 m/S 655 mmHg 28%
    11:00 +27°C° 0.2 mm 3 m/S 655 mmHg 28%
    12:00 +27°C° 0.2 mm 3 m/S 654 mmHg 28%
    13:00 +27°C° 0.2 mm 3 m/S 654 mmHg 28%
    14:00 +27°C° 0 mm 3 m/S 653 mmHg 28%
    15:00 +28°C° 0 mm 4 m/S 653 mmHg 28%
    16:00 +28°C° 0 mm 4 m/S 652 mmHg 28%
    17:00 +26°C° 0.7 mm 4 m/S 652 mmHg 35%
    18:00 +25°C° 0.7 mm 4 m/S 651 mmHg 42%
    19:00 +22°C° 0.7 mm 4 m/S 651 mmHg 48%
    20:00 +21°C° 0.1 mm 3 m/S 651 mmHg 52%
    21:00 +21°C° 0.1 mm 2 m/S 651 mmHg 55%
    22:00 +20°C° 0.1 mm 2 m/S 651 mmHg 58%
    23:00 +19°C° 0.2 mm 2 m/S 650 mmHg 65%

    24 April, Mittwoch

    Zeit Temperatur Niederschläge Wind Luftdruck Luftfeuchtigkeit
    00:00 +18°C° 0.2 mm 2 m/S 650 mmHg 71%
    01:00 +17°C° 0.2 mm 2 m/S 650 mmHg 78%
    02:00 +15°C° 0.1 mm 4 m/S 650 mmHg 81%
    03:00 +14°C° 0.1 mm 5 m/S 650 mmHg 83%
    04:00 +14°C° 0.1 mm 7 m/S 650 mmHg 85%
    05:00 +11°C° 0.3 mm 7 m/S 651 mmHg 85%
    06:00 +10°C° 0.3 mm 6 m/S 652 mmHg 85%
    07:00 +8°C° 0.3 mm 6 m/S 652 mmHg 85%
    08:00 +8°C° 0.1 mm 6 m/S 653 mmHg 83%
    09:00 +8°C° 0.1 mm 6 m/S 653 mmHg 81%
    10:00 +8°C° 0.1 mm 7 m/S 654 mmHg 79%
    11:00 +7°C° 0.1 mm 6 m/S 654 mmHg 80%
    12:00 +7°C° 0.1 mm 6 m/S 654 mmHg 81%
    13:00 +5°C° 0.1 mm 6 m/S 654 mmHg 81%
    14:00 +5°C° 0.3 mm 6 m/S 654 mmHg 82%
    15:00 +4°C° 0.3 mm 6 m/S 655 mmHg 82%
    16:00 +4°C° 0.3 mm 6 m/S 655 mmHg 83%
    17:00 +5°C° 0.5 mm 5 m/S 655 mmHg 82%
    18:00 +5°C° 0.5 mm 5 m/S 656 mmHg 82%
    19:00 +5°C° 0.5 mm 4 m/S 656 mmHg 81%
    20:00 +5°C° 0.3 mm 4 m/S 657 mmHg 80%
    21:00 +4°C° 0.3 mm 3 m/S 657 mmHg 80%
    22:00 +4°C° 0.3 mm 3 m/S 657 mmHg 79%
    23:00 +4°C° 0.3 mm 3 m/S 657 mmHg 79%

    25 April, Donnerstag

    Zeit Temperatur Niederschläge Wind Luftdruck Luftfeuchtigkeit
    00:00 +5°C° 0.3 mm 2 m/S 657 mmHg 78%
    01:00 +5°C° 0.3 mm 2 m/S 657 mmHg 77%
    02:00 +5°C° 0.2 mm 2 m/S 657 mmHg 77%
    03:00 +5°C° 0.2 mm 2 m/S 657 mmHg 77%
    04:00 +5°C° 0.2 mm 2 m/S 657 mmHg 77%
    05:00 +5°C° 0.1 mm 2 m/S 658 mmHg 75%
    06:00 +5°C° 0.1 mm 2 m/S 658 mmHg 74%
    07:00 +6°C° 0.1 mm 2 m/S 658 mmHg 72%
    08:00 +6°C° 0.1 mm 2 m/S 658 mmHg 69%
    09:00 +7°C° 0.1 mm 2 m/S 658 mmHg 66%
    10:00 +8°C° 0.1 mm 3 m/S 658 mmHg 63%
    11:00 +9°C° 0.1 mm 3 m/S 658 mmHg 60%
    12:00 +9°C° 0.1 mm 3 m/S 658 mmHg 57%
    13:00 +10°C° 0.1 mm 3 m/S 658 mmHg 54%
    14:00 +10°C° 0 mm 2 m/S 658 mmHg 53%
    15:00 +10°C° 0 mm 2 m/S 658 mmHg 51%
    16:00 +12°C° 0 mm 2 m/S 658 mmHg 49%
    17:00 +10°C° 0 mm 2 m/S 658 mmHg 50%
    18:00 +10°C° 0 mm 1 m/S 658 mmHg 50%
    19:00 +10°C° 0 mm 1 m/S 658 mmHg 50%
    20:00 +10°C° 0 mm 1 m/S 658 mmHg 52%
    21:00 +8°C° 0 mm 0 m/S 658 mmHg 53%
    22:00 +8°C° 0 mm 0 m/S 658 mmHg 55%
    23:00 +8°C° 0 mm 0 m/S 657 mmHg 56%
    Mehr zeigen